Location: Burgwalden
(48.2830°N, 10.7576°E)
Time: 21:57:46
(UTC+00:00)

Cosmos 2322 - Pass Details

Date: 26 September 2023
Orbit: 842 x 852 km, 71.0° (Epoch: 09 December)

Event Time Altitude Azimuth Distance (km) Brightness Sun altitude
Rises 04:21:10 0° 329° (NNW) 3,427 6.6 -8.7°
Reaches altitude 10° 04:23:39 10° 327° (NNW) 2,486 5.9 -8.3°
Maximum altitude 04:29:15 62° 248° (WSW) 955 3.7 -7.4°
Drops below altitude 10° 04:34:50 10° 169° (S) 2,463 6.2 -6.4°
Sets 04:37:17 0° 166° (SSE) 3,392 7.0 -6.0°
